Regional Weather Roundup
Issued by NWS

Home | Current Version | Previous Version | Graphics & Text | Print | Product List | Glossary On
Versions: 1 2 3 4 5 6 7 8 9 10 11 12 13 14 15 16 17 18 19 20 21 22 23 24 25 26 27 28 29 30 31 32 33 34 35 36 37 38 39 40 41 42 43 44 45 46 47 48 49 50
417
ASUS43 KLOT 041603
RWRIL

ILLINOIS REGIONAL WEATHER ROUNDUP
NATIONAL WEATHER SERVICE CHICAGO/ROMEOVILLE IL
1100 AM CDT WED MAY 04 2016

NOTE: "FAIR" INDICATES FEW OR NO CLOUDS BELOW 12,000 FEET WITH NO
SIGNIFICANT WEATHER AND/OR OBSTRUCTIONS TO VISIBILITY.

* THESE STATIONS ARE NOT UNDER NWS QUALITY CONTROL. THEY ALSO MAY NOT
  REPORT WEATHER SUCH AS PRECIPITATION OR FOG.

ILZ001-002-007-009-015-016-024-041700-
NORTHWEST ILLINOIS

CITY           SKY/WX    TMP DP  RH WIND       PRES   REMARKS
MOLINE         SUNNY     57  39  51 N14G26    29.85R
STERLING*      MOSUNNY   55  43  62 NW17G23   29.83S
$$

ILZ003-004-008-010-011-017-018-041700-
NORTH CENTRAL ILLINOIS

CITY           SKY/WX    TMP DP  RH WIND       PRES   REMARKS
ROCKFORD       PTSUNNY   51  38  60 N13G23    29.83S
FREEPORT*      PTSUNNY   52  40  64 NW17G25   29.84R
ROCHELLE*      PTSUNNY   50  40  66 N21G29    29.81R
DE KALB*       CLOUDY    48  39  72 N20G30    29.80R
$$

ILZ005-006-012>014-019>023-041700-
NORTHEAST ILLINOIS

CITY           SKY/WX    TMP DP  RH WIND       PRES   REMARKS
CHICAGO-OHARE  CLOUDY    48  37  65 N16       29.76R
CHICAGO-MIDWAY CLOUDY    50  37  61 N16G24    29.76R
AURORA         CLOUDY    51  39  63 N24       29.78R
LANSING*       CLOUDY    47  37  66 N23G33    29.76S
WAUKEGAN       CLOUDY    48  37  65 N12G20    29.76R
DUPAGE AIRPORT CLOUDY    50  37  61 N20       29.77R
WHEELING       CLOUDY    49  38  65 N12G18    29.78R
NORTHERLY ISL    N/A     47  37  68 N21         N/A
NORTHERLY ISL    N/A     47  37  68 N21         N/A
$$

LMZ740>746-041700-
SOUTHERN LAKE MICHIGAN

STATION/POSITION SKY/WX   TEMP    WIND        PRES    VSBY  WAVE
                          AIR SEA DIR/SP/G                  HT/PER
                          (F)     (DEG/KT/KT) (MB)    (MI)  (FT/S)
SOUTHERN BUOY              41 40  350/ 23/ 27 1005.8          6/ 6
WILMETTE HARBOR            45 44   20/ 14/ 19   N/A           5/ 5
HARRISON CRIB              46     350/ 23/ 30   N/A
BURNHAM HARBOR             47     350/ 14/ 24   N/A
CALUMET HARBOR             45     330/ 19/ 27 1007.2R
BURNS HARBOR               44     350/ 24     1007.5R
MICHIGAN CITY              43     320/ 28/ 30   N/A
ST. JOSEPH                 43 47                N/A           9/ 6
$$

ILZ025>027-034>036-040-047-049-050-058-095>099-041700-
WEST-CENTRAL ILLINOIS

CITY           SKY/WX    TMP DP  RH WIND       PRES   REMARKS
QUINCY         MOSUNNY   61  44  53 N17       29.86R
MACOMB*        PTSUNNY   56  46  69 N17       29.88R
PITTSFIELD*    SUNNY     61  46  57 N16G28    29.84R
$$

ILZ028>032-037-038-041>044-048-051>054-059>061-041700-
CENTRAL ILLINOIS

CITY           SKY/WX    TMP DP  RH WIND       PRES   REMARKS
BLOOMINGTON    PTSUNNY   56  45  66 N17G26    29.80R
DECATUR        PTSUNNY   56  46  69 N16       29.78R
PEORIA         PTSUNNY   56  41  57 N16G22    29.81R
SPRINGFIELD    MOSUNNY   61  48  62 N15G29    29.81R
TAYLORVILLE    NOT AVBL
$$

ILZ033-039-045-046-055>057-062-063-041700-
EAST-CENTRAL ILLINOIS

CITY           SKY/WX    TMP DP  RH WIND       PRES   REMARKS
CHAMPAIGN      PTSUNNY   57  46  66 N17G26    29.76R
MATTOON        PTSUNNY   58  44  60 N18       29.75R
$$

ILZ079-100>102-041700-
SOUTHWEST ILLINOIS

CITY           SKY/WX    TMP DP  RH WIND       PRES   REMARKS
ALTON          MOSUNNY   63  46  55 N18       29.80R
BELLEVILLE     MOSUNNY   65  49  56 N12G18    29.77R
CAHOKIA*       MOSUNNY   66  47  50 N17       29.79R
SPARTA*        PTSUNNY   64  50  59 NW15      29.77R
$$

ILZ064>066-069>071-074>076-080>082-084>086-088>090-092>094-041700-
SOUTH-CENTRAL ILLINOIS

CITY           SKY/WX    TMP DP  RH WIND       PRES   REMARKS
CARBONDALE     PTSUNNY   63  49  60 NW15G26   29.75R
MARION         PTSUNNY   63  52  67 NW17      29.75R
MT. VERNON     PTSUNNY   63  48  59 N6        29.75R
SALEM*         MOSUNNY   63  48  59 N15G22    29.75R
$$

ILZ067-068-072-073-078-083-087-091-041700-
SOUTHEAST ILLINOIS

CITY           SKY/WX    TMP DP  RH WIND       PRES   REMARKS
LAWRENCEVILLE  PTSUNNY   61  51  70 N16       29.72R
FLORA*         PTSUNNY   62  49  61 N15G21    29.74R
HARRISBURG*    MOSUNNY   63  54  73 NW10G20   29.74R
ROBINSON*      MOSUNNY   58  51  77 N10G17    29.73S
$$

ABBREVIATIONS USED IN REMARKS
   TC - TEMPERATURE IN CELSIUS
  WCI - WIND CHILL INDEX
   HX - HEAT INDEX
  VSB - VISIBILITY
$$





USA.gov is the U.S. government's official web portal to all federal, state and local government web resources and services.